• In Deutschland
  • Länderverzeichnis
  • Für 7 Tage
  • Wassertemperatur
  • Satellitenkarten
  • Wetterkarte
  • Widgets
  • user-avatar
    Anmelden

    Stündliche Wetter Winsen

    Heute, 24 September, Montag

    Zeit Temperatur Niederschläge Wind Luftdruck Luftfeuchtigkeit
    00:00 +7°C° 0 mm 4 m/S 762 mmHg 85%
    01:00 +8°C° 0 mm 3 m/S 762 mmHg 88%
    02:00 +7°C° 0 mm 4 m/S 763 mmHg 87%
    03:00 +7°C° 0 mm 4 m/S 764 mmHg 86%
    04:00 +7°C° 0 mm 4 m/S 764 mmHg 85%
    05:00 +7°C° 0 mm 5 m/S 765 mmHg 83%
    06:00 +7°C° 0 mm 5 m/S 766 mmHg 82%
    07:00 +7°C° 0 mm 4 m/S 766 mmHg 84%
    08:00 +8°C° 0.1 mm 5 m/S 767 mmHg 76%
    09:00 +9°C° 0.1 mm 6 m/S 767 mmHg 68%
    10:00 +11°C° 0.1 mm 7 m/S 768 mmHg 60%
    11:00 +11°C° 0.2 mm 7 m/S 768 mmHg 57%
    12:00 +12°C° 0.2 mm 7 m/S 769 mmHg 53%
    13:00 +12°C° 0.2 mm 7 m/S 769 mmHg 50%
    14:00 +12°C° 0.1 mm 7 m/S 769 mmHg 49%
    15:00 +12°C° 0.1 mm 7 m/S 770 mmHg 48%
    16:00 +12°C° 0.1 mm 7 m/S 770 mmHg 47%
    17:00 +10°C° 0 mm 6 m/S 771 mmHg 52%
    18:00 +9°C° 0 mm 5 m/S 771 mmHg 56%
    19:00 +8°C° 0 mm 4 m/S 771 mmHg 61%
    20:00 +7°C° 0 mm 4 m/S 772 mmHg 64%
    21:00 +7°C° 0 mm 4 m/S 773 mmHg 67%
    22:00 +7°C° 0 mm 3 m/S 773 mmHg 69%
    23:00 +7°C° 0 mm 3 m/S 774 mmHg 72%

    Morgen, 25 September, Dienstag

    Zeit Temperatur Niederschläge Wind Luftdruck Luftfeuchtigkeit
    00:00 +7°C° 0 mm 3 m/S 774 mmHg 74%
    01:00 +5°C° 0 mm 3 m/S 774 mmHg 77%
    02:00 +5°C° 0 mm 3 m/S 775 mmHg 79%
    03:00 +5°C° 0 mm 3 m/S 775 mmHg 81%
    04:00 +5°C° 0 mm 3 m/S 775 mmHg 83%
    05:00 +6°C° 0 mm 2 m/S 775 mmHg 84%
    06:00 +6°C° 0 mm 2 m/S 776 mmHg 84%
    07:00 +6°C° 0 mm 2 m/S 776 mmHg 84%
    08:00 +8°C° 0 mm 2 m/S 777 mmHg 74%
    09:00 +10°C° 0 mm 2 m/S 777 mmHg 64%
    10:00 +13°C° 0 mm 2 m/S 777 mmHg 54%
    11:00 +14°C° 0 mm 2 m/S 777 mmHg 51%
    12:00 +15°C° 0 mm 2 m/S 777 mmHg 47%
    13:00 +16°C° 0 mm 2 m/S 777 mmHg 44%
    14:00 +16°C° 0 mm 2 m/S 777 mmHg 45%
    15:00 +16°C° 0 mm 2 m/S 777 mmHg 46%
    16:00 +16°C° 0 mm 2 m/S 777 mmHg 48%
    17:00 +14°C° 0 mm 2 m/S 777 mmHg 54%
    18:00 +13°C° 0 mm 2 m/S 777 mmHg 60%
    19:00 +10°C° 0 mm 2 m/S 777 mmHg 67%
    20:00 +10°C° 0 mm 2 m/S 777 mmHg 70%
    21:00 +9°C° 0 mm 2 m/S 777 mmHg 73%
    22:00 +8°C° 0 mm 2 m/S 777 mmHg 76%
    23:00 +8°C° 0 mm 2 m/S 776 mmHg 76%

    übermorgen, 26 September, Mittwoch

    Zeit Temperatur Niederschläge Wind Luftdruck Luftfeuchtigkeit
    00:00 +8°C° 0 mm 3 m/S 776 mmHg 76%
    01:00 +8°C° 0 mm 3 m/S 776 mmHg 77%
    02:00 +8°C° 0 mm 3 m/S 775 mmHg 76%
    03:00 +8°C° 0 mm 3 m/S 775 mmHg 75%
    04:00 +8°C° 0 mm 3 m/S 775 mmHg 74%
    05:00 +8°C° 0 mm 3 m/S 775 mmHg 72%
    06:00 +7°C° 0 mm 4 m/S 774 mmHg 70%
    07:00 +7°C° 0 mm 4 m/S 774 mmHg 68%
    08:00 +9°C° 0 mm 5 m/S 774 mmHg 62%
    09:00 +12°C° 0 mm 5 m/S 773 mmHg 56%
    10:00 +14°C° 0 mm 6 m/S 773 mmHg 50%
    11:00 +15°C° 0 mm 6 m/S 773 mmHg 48%
    12:00 +16°C° 0 mm 6 m/S 772 mmHg 45%
    13:00 +17°C° 0 mm 7 m/S 772 mmHg 43%
    14:00 +17°C° 0 mm 6 m/S 772 mmHg 44%
    15:00 +19°C° 0 mm 6 m/S 771 mmHg 45%
    16:00 +19°C° 0 mm 6 m/S 771 mmHg 45%
    17:00 +17°C° 0 mm 5 m/S 771 mmHg 51%
    18:00 +15°C° 0 mm 5 m/S 771 mmHg 56%
    19:00 +14°C° 0 mm 4 m/S 771 mmHg 61%
    20:00 +14°C° 0 mm 5 m/S 771 mmHg 63%
    21:00 +14°C° 0 mm 5 m/S 771 mmHg 65%
    22:00 +14°C° 0 mm 5 m/S 771 mmHg 68%
    23:00 +13°C° 0 mm 5 m/S 771 mmHg 70%

    27 September, Donnerstag

    Zeit Temperatur Niederschläge Wind Luftdruck Luftfeuchtigkeit
    00:00 +13°C° 0 mm 5 m/S 771 mmHg 73%
    01:00 +13°C° 0 mm 5 m/S 771 mmHg 76%
    02:00 +12°C° 0 mm 5 m/S 770 mmHg 77%
    03:00 +12°C° 0 mm 4 m/S 770 mmHg 78%
    04:00 +12°C° 0 mm 4 m/S 770 mmHg 80%
    05:00 +12°C° 0 mm 4 m/S 770 mmHg 80%
    06:00 +12°C° 0 mm 4 m/S 770 mmHg 81%
    07:00 +12°C° 0 mm 4 m/S 770 mmHg 81%
    08:00 +14°C° 0 mm 4 m/S 770 mmHg 76%
    09:00 +16°C° 0 mm 5 m/S 770 mmHg 71%
    10:00 +17°C° 0 mm 5 m/S 770 mmHg 67%
    11:00 +20°C° 0 mm 5 m/S 770 mmHg 64%
    12:00 +21°C° 0 mm 5 m/S 769 mmHg 61%
    13:00 +22°C° 0 mm 5 m/S 769 mmHg 58%
    14:00 +22°C° 0 mm 5 m/S 769 mmHg 58%
    15:00 +22°C° 0 mm 5 m/S 768 mmHg 59%
    16:00 +22°C° 0 mm 5 m/S 768 mmHg 60%
    17:00 +20°C° 0 mm 4 m/S 768 mmHg 65%
    18:00 +19°C° 0 mm 3 m/S 767 mmHg 71%
    19:00 +17°C° 0 mm 3 m/S 767 mmHg 77%
    20:00 +17°C° 0 mm 3 m/S 767 mmHg 78%
    21:00 +16°C° 0 mm 3 m/S 767 mmHg 79%
    22:00 +14°C° 0 mm 3 m/S 767 mmHg 80%
    23:00 +14°C° 0 mm 3 m/S 766 mmHg 81%

    28 September, Freitag

    Zeit Temperatur Niederschläge Wind Luftdruck Luftfeuchtigkeit
    00:00 +13°C° 0 mm 3 m/S 766 mmHg 82%
    01:00 +13°C° 0 mm 3 m/S 766 mmHg 83%
    02:00 +12°C° 0 mm 3 m/S 766 mmHg 86%
    03:00 +11°C° 0 mm 3 m/S 765 mmHg 88%
    04:00 +12°C° 0 mm 2 m/S 765 mmHg 91%
    05:00 +12°C° 0 mm 2 m/S 766 mmHg 92%
    06:00 +12°C° 0 mm 2 m/S 766 mmHg 93%
    07:00 +10°C° 0 mm 2 m/S 766 mmHg 95%
    08:00 +13°C° 0 mm 2 m/S 766 mmHg 85%
    09:00 +13°C° 0 mm 3 m/S 766 mmHg 76%
    10:00 +16°C° 0 mm 3 m/S 767 mmHg 67%
    11:00 +16°C° 0 mm 3 m/S 767 mmHg 64%
    12:00 +16°C° 0 mm 3 m/S 767 mmHg 60%
    13:00 +17°C° 0 mm 3 m/S 767 mmHg 56%
    14:00 +16°C° 0 mm 3 m/S 767 mmHg 55%
    15:00 +16°C° 0 mm 3 m/S 767 mmHg 53%
    16:00 +16°C° 0 mm 3 m/S 767 mmHg 51%
    17:00 +14°C° 0 mm 3 m/S 767 mmHg 54%
    18:00 +14°C° 0 mm 2 m/S 767 mmHg 57%
    19:00 +13°C° 0 mm 2 m/S 768 mmHg 60%
    20:00 +12°C° 0 mm 2 m/S 768 mmHg 65%
    21:00 +10°C° 0 mm 2 m/S 768 mmHg 69%
    22:00 +9°C° 0 mm 2 m/S 769 mmHg 73%
    23:00 +8°C° 0 mm 2 m/S 769 mmHg 76%

    29 September, Samstag

    Zeit Temperatur Niederschläge Wind Luftdruck Luftfeuchtigkeit
    00:00 +7°C° 0 mm 2 m/S 769 mmHg 78%
    01:00 +7°C° 0 mm 2 m/S 769 mmHg 81%
    02:00 +6°C° 0 mm 2 m/S 769 mmHg 82%
    03:00 +6°C° 0 mm 2 m/S 769 mmHg 83%
    04:00 +5°C° 0 mm 2 m/S 770 mmHg 84%
    05:00 +5°C° 0 mm 2 m/S 770 mmHg 84%
    06:00 +5°C° 0 mm 2 m/S 770 mmHg 84%
    07:00 +6°C° 0 mm 1 m/S 770 mmHg 84%
    08:00 +9°C° 0 mm 1 m/S 770 mmHg 74%
    09:00 +11°C° 0 mm 1 m/S 771 mmHg 63%
    10:00 +13°C° 0 mm 1 m/S 771 mmHg 53%
    11:00 +14°C° 0 mm 1 m/S 771 mmHg 48%
    12:00 +16°C° 0 mm 1 m/S 771 mmHg 43%
    13:00 +18°C° 0 mm 1 m/S 770 mmHg 38%
    14:00 +18°C° 0 mm 1 m/S 770 mmHg 38%
    15:00 +16°C° 0 mm 1 m/S 770 mmHg 38%
    16:00 +16°C° 0 mm 1 m/S 770 mmHg 38%
    17:00 +14°C° 0 mm 1 m/S 770 mmHg 45%
    18:00 +13°C° 0 mm 1 m/S 770 mmHg 52%
    19:00 +11°C° 0 mm 1 m/S 770 mmHg 59%
    20:00 +10°C° 0 mm 1 m/S 770 mmHg 62%
    21:00 +9°C° 0 mm 1 m/S 770 mmHg 65%
    22:00 +9°C° 0 mm 1 m/S 770 mmHg 68%
    23:00 +9°C° 0 mm 1 m/S 769 mmHg 69%
    Mehr zeigen